Time,TemperatureF,DewpointF,PressureIn,WindDirection,WindDirectionDegrees,WindSpeedMPH,WindSpeedGustMPH,Humidity,HourlyPrecipIn,Conditions,Clouds,dailyrainin,SoftwareType,DateUTC
2013-03-11 00:02:00,38.0,37.0,29.73,West,270,12.0,17.0,95,-99.99,,,-99.99,,2013-03-11 04:02:00,
2013-03-11 00:12:00,38.0,36.0,29.73,West,270,12.0,21.0,95,-99.99,,,-99.99,,2013-03-11 04:12:00,
2013-03-11 00:22:00,38.0,36.0,29.73,WSW,247,11.0,16.0,96,-99.99,,,-99.99,,2013-03-11 04:22:00,
2013-03-11 00:32:00,37.0,36.0,29.73,West,270,12.0,18.0,96,-99.99,,,-99.99,,2013-03-11 04:32:00,
2013-03-11 00:42:00,37.0,36.0,29.74,WNW,292,12.0,18.0,97,-99.99,,,-99.99,,2013-03-11 04:42:00,
2013-03-11 00:52:00,36.0,36.0,29.75,West,270,11.0,16.0,97,-99.99,,,-99.99,,2013-03-11 04:52:00,
2013-03-11 01:03:00,36.0,35.0,29.75,West,270,11.0,17.0,97,-99.99,,,-99.99,,2013-03-11 05:03:00,
2013-03-11 01:12:00,36.0,35.0,29.75,WNW,292,12.0,17.0,97,-99.99,,,-99.99,,2013-03-11 05:12:00,
2013-03-11 01:22:00,35.0,34.0,29.75,West,270,12.0,17.0,97,-99.99,,,-99.99,,2013-03-11 05:22:00,
2013-03-11 01:32:00,34.0,34.0,29.75,West,270,13.0,19.0,97,-99.99,,,-99.99,,2013-03-11 05:32:00,
2013-03-11 01:42:00,34.0,34.0,29.75,West,270,9.0,15.0,97,-99.99,,,-99.99,,2013-03-11 05:42:00,
2013-03-11 01:52:00,34.0,33.0,29.74,WNW,292,14.0,20.0,97,-99.99,,,-99.99,,2013-03-11 05:52:00,
2013-03-11 02:02:00,34.0,33.0,29.73,WNW,292,13.0,20.0,97,-99.99,,,-99.99,,2013-03-11 06:02:00,
2013-03-11 02:12:00,34.0,32.0,29.73,WNW,292,13.0,20.0,96,-99.99,,,-99.99,,2013-03-11 06:12:00,
2013-03-11 02:22:00,33.0,32.0,29.73,West,270,14.0,21.0,95,-99.99,,,-99.99,,2013-03-11 06:22:00,
2013-03-11 02:32:00,33.0,32.0,29.74,West,270,14.0,20.0,94,-99.99,,,-99.99,,2013-03-11 06:32:00,
2013-03-11 02:42:00,33.0,32.0,29.74,WNW,292,12.0,17.0,95,-99.99,,,-99.99,,2013-03-11 06:42:00,
2013-03-11 02:52:00,33.0,31.0,29.75,West,270,12.0,18.0,94,-99.99,,,-99.99,,2013-03-11 06:52:00,
2013-03-11 03:02:00,33.0,31.0,29.75,WNW,292,11.0,21.0,93,-99.99,,,-99.99,,2013-03-11 07:02:00,
2013-03-11 03:12:00,33.0,31.0,29.75,WNW,292,12.0,21.0,92,-99.99,,,-99.99,,2013-03-11 07:12:00,
2013-03-11 03:22:00,32.0,30.0,29.75,West,270,12.0,25.0,92,-99.99,,,-99.99,,2013-03-11 07:22:00,
2013-03-11 03:32:00,32.0,30.0,29.75,WSW,247,11.0,17.0,92,-99.99,,,-99.99,,2013-03-11 07:32:00,
2013-03-11 03:42:00,32.0,30.0,29.75,West,270,11.0,18.0,91,-99.99,,,-99.99,,2013-03-11 07:42:00,
2013-03-11 03:52:00,32.0,30.0,29.75,West,270,12.0,17.0,91,-99.99,,,-99.99,,2013-03-11 07:52:00,
2013-03-11 04:02:00,32.0,30.0,29.73,WSW,247,11.0,15.0,91,-99.99,,,-99.99,,2013-03-11 08:02:00,
2013-03-11 04:12:00,32.0,30.0,29.73,West,270,13.0,18.0,91,-99.99,,,-99.99,,2013-03-11 08:12:00,
2013-03-11 04:22:00,32.0,30.0,29.73,West,270,8.0,13.0,92,-99.99,,,-99.99,,2013-03-11 08:22:00,
2013-03-11 04:32:00,32.0,30.0,29.72,West,270,8.0,11.0,93,-99.99,,,-99.99,,2013-03-11 08:32:00,
2013-03-11 04:42:00,32.0,30.0,29.72,WNW,292,9.0,15.0,93,-99.99,,,-99.99,,2013-03-11 08:42:00,
2013-03-11 04:52:00,32.0,30.0,29.72,West,270,7.0,11.0,94,-99.99,,,-99.99,,2013-03-11 08:52:00,
2013-03-11 05:02:00,32.0,30.0,29.72,West,270,11.0,17.0,93,-99.99,,,-99.99,,2013-03-11 09:02:00,
2013-03-11 05:12:00,32.0,29.0,29.73,WNW,292,11.0,16.0,92,-99.99,,,-99.99,,2013-03-11 09:12:00,
2013-03-11 05:22:00,32.0,30.0,29.73,WSW,247,9.0,14.0,93,-99.99,,,-99.99,,2013-03-11 09:22:00,
2013-03-11 05:32:00,32.0,30.0,29.73,West,270,10.0,17.0,93,-99.99,,,-99.99,,2013-03-11 09:32:00,
2013-03-11 05:42:00,32.0,30.0,29.73,West,270,12.0,16.0,93,-99.99,,,-99.99,,2013-03-11 09:42:00,
2013-03-11 05:52:00,32.0,30.0,29.73,West,270,10.0,17.0,93,-99.99,,,-99.99,,2013-03-11 09:52:00,
2013-03-11 06:02:00,32.0,30.0,29.73,WSW,247,9.0,14.0,93,-99.99,,,-99.99,,2013-03-11 10:02:00,
2013-03-11 06:12:00,32.0,30.0,29.74,West,270,10.0,15.0,93,-99.99,,,-99.99,,2013-03-11 10:12:00,
2013-03-11 06:22:00,31.0,29.0,29.74,West,270,9.0,17.0,92,-99.99,,,-99.99,,2013-03-11 10:22:00,
2013-03-11 06:32:00,31.0,29.0,29.75,West,270,12.0,17.0,92,-99.99,,,-99.99,,2013-03-11 10:32:00,
2013-03-11 06:42:00,31.0,29.0,29.75,WNW,292,12.0,18.0,91,-99.99,,,-99.99,,2013-03-11 10:42:00,
2013-03-11 06:52:00,31.0,29.0,29.75,West,270,10.0,17.0,92,-99.99,,,-99.99,,2013-03-11 10:52:00,
2013-03-11 07:02:00,31.0,29.0,29.75,West,270,11.0,16.0,91,-99.99,,,-99.99,,2013-03-11 11:02:00,
2013-03-11 07:12:00,31.0,29.0,29.75,West,270,9.0,13.0,92,-99.99,,,-99.99,,2013-03-11 11:12:00,
2013-03-11 07:22:00,31.0,29.0,29.75,West,270,14.0,19.0,92,-99.99,,,-99.99,,2013-03-11 11:22:00,
2013-03-11 07:32:00,31.0,29.0,29.75,West,270,12.0,16.0,92,-99.99,,,-99.99,,2013-03-11 11:32:00,
2013-03-11 07:42:00,31.0,29.0,29.75,West,270,10.0,15.0,92,-99.99,,,-99.99,,2013-03-11 11:42:00,
2013-03-11 07:52:00,31.0,29.0,29.75,West,270,12.0,20.0,91,-99.99,,,-99.99,,2013-03-11 11:52:00,
2013-03-11 08:02:00,31.0,29.0,29.75,West,270,12.0,18.0,93,-99.99,,,-99.99,,2013-03-11 12:02:00,
2013-03-11 08:12:00,30.0,29.0,29.74,WSW,247,13.0,22.0,93,-99.99,,,-99.99,,2013-03-11 12:12:00,
2013-03-11 08:22:00,30.0,29.0,29.74,West,270,14.0,23.0,93,-99.99,,,-99.99,,2013-03-11 12:22:00,
2013-03-11 08:32:00,30.0,28.0,29.74,West,270,15.0,23.0,92,-99.99,,,-99.99,,2013-03-11 12:32:00,
2013-03-11 08:42:00,30.0,28.0,29.74,WNW,292,12.0,19.0,91,-99.99,,,-99.99,,2013-03-11 12:42:00,
2013-03-11 08:52:00,30.0,28.0,29.74,WNW,292,10.0,15.0,92,-99.99,,,-99.99,,2013-03-11 12:52:00,
2013-03-11 09:02:00,30.0,29.0,29.75,WSW,247,10.0,14.0,94,-99.99,,,-99.99,,2013-03-11 13:02:00,
2013-03-11 09:12:00,30.0,28.0,29.75,West,270,11.0,19.0,93,-99.99,,,-99.99,,2013-03-11 13:12:00,
2013-03-11 09:22:00,30.0,28.0,29.76,West,270,11.0,16.0,92,-99.99,,,-99.99,,2013-03-11 13:22:00,
2013-03-11 09:32:00,30.0,28.0,29.76,West,270,13.0,21.0,90,-99.99,,,-99.99,,2013-03-11 13:32:00,
2013-03-11 09:42:00,30.0,27.0,29.76,West,270,13.0,19.0,90,-99.99,,,-99.99,,2013-03-11 13:42:00,
2013-03-11 09:52:00,30.0,28.0,29.77,WSW,247,10.0,15.0,91,-99.99,,,-99.99,,2013-03-11 13:52:00,
2013-03-11 10:02:00,30.0,28.0,29.76,West,270,11.0,17.0,92,-99.99,,,-99.99,,2013-03-11 14:02:00,
2013-03-11 10:12:00,30.0,28.0,29.77,WNW,292,12.0,17.0,90,-99.99,,,-99.99,,2013-03-11 14:12:00,
2013-03-11 10:22:00,30.0,27.0,29.77,WNW,292,12.0,21.0,89,-99.99,,,-99.99,,2013-03-11 14:22:00,
2013-03-11 10:32:00,30.0,27.0,29.78,West,270,12.0,20.0,89,-99.99,,,-99.99,,2013-03-11 14:32:00,
2013-03-11 10:42:00,30.0,27.0,29.78,West,270,14.0,21.0,89,-99.99,,,-99.99,,2013-03-11 14:42:00,
2013-03-11 10:52:00,30.0,27.0,29.78,WNW,292,12.0,18.0,89,-99.99,,,-99.99,,2013-03-11 14:52:00,
2013-03-11 11:02:00,30.0,27.0,29.78,WSW,247,12.0,20.0,89,-99.99,,,-99.99,,2013-03-11 15:02:00,
2013-03-11 11:12:00,30.0,27.0,29.78,WSW,247,14.0,23.0,89,-99.99,,,-99.99,,2013-03-11 15:12:00,
2013-03-11 11:22:00,29.0,27.0,29.79,WNW,292,14.0,21.0,90,-99.99,,,-99.99,,2013-03-11 15:22:00,
2013-03-11 11:32:00,29.0,27.0,29.79,WSW,247,14.0,21.0,90,-99.99,,,-99.99,,2013-03-11 15:32:00,
2013-03-11 11:42:00,29.0,27.0,29.79,WSW,247,14.0,21.0,90,-99.99,,,-99.99,,2013-03-11 15:42:00,
2013-03-11 11:52:00,30.0,27.0,29.80,West,270,12.0,21.0,92,-99.99,,,-99.99,,2013-03-11 15:52:00,
2013-03-11 12:02:00,29.0,27.0,29.79,WNW,292,12.0,17.0,91,-99.99,,,-99.99,,2013-03-11 16:02:00,
2013-03-11 12:12:00,29.0,27.0,29.79,WNW,292,14.0,26.0,90,-99.99,,,-99.99,,2013-03-11 16:12:00,
2013-03-11 12:22:00,30.0,27.0,29.80,WNW,292,14.0,21.0,89,-99.99,,,-99.99,,2013-03-11 16:22:00,
2013-03-11 12:32:00,30.0,27.0,29.80,WSW,247,14.0,23.0,89,-99.99,,,-99.99,,2013-03-11 16:32:00,
2013-03-11 12:42:00,30.0,27.0,29.81,West,270,10.0,19.0,88,-99.99,,,-99.99,,2013-03-11 16:42:00,
2013-03-11 12:52:00,30.0,27.0,29.80,West,270,12.0,20.0,88,-99.99,,,-99.99,,2013-03-11 16:52:00,
2013-03-11 13:02:00,30.0,26.0,29.80,WNW,292,13.0,19.0,87,-99.99,,,-99.99,,2013-03-11 17:02:00,
2013-03-11 13:13:00,30.0,26.0,29.80,West,270,13.0,19.0,87,-99.99,,,-99.99,,2013-03-11 17:13:00,
2013-03-11 13:24:00,30.0,27.0,29.80,WNW,292,12.0,18.0,86,-99.99,,,-99.99,,2013-03-11 17:24:00,
2013-03-11 13:34:00,30.0,27.0,29.80,West,270,12.0,21.0,86,-99.99,,,-99.99,,2013-03-11 17:34:00,
2013-03-11 13:42:00,30.0,27.0,29.80,WNW,292,13.0,18.0,85,-99.99,,,-99.99,,2013-03-11 17:42:00,
2013-03-11 13:52:00,31.0,27.0,29.80,West,270,11.0,18.0,85,-99.99,,,-99.99,,2013-03-11 17:52:00,
2013-03-11 14:02:00,32.0,27.0,29.80,West,270,11.0,18.0,84,-99.99,,,-99.99,,2013-03-11 18:02:00,
2013-03-11 14:12:00,31.0,26.0,29.80,WNW,292,12.0,19.0,82,-99.99,,,-99.99,,2013-03-11 18:12:00,
2013-03-11 14:22:00,32.0,27.0,29.80,West,270,15.0,22.0,82,-99.99,,,-99.99,,2013-03-11 18:22:00,
2013-03-11 14:32:00,32.0,27.0,29.80,West,270,15.0,25.0,83,-99.99,,,-99.99,,2013-03-11 18:32:00,
2013-03-11 14:42:00,31.0,27.0,29.80,West,270,14.0,20.0,82,-99.99,,,-99.99,,2013-03-11 18:42:00,
2013-03-11 14:52:00,31.0,27.0,29.80,West,270,14.0,20.0,82,-99.99,,,-99.99,,2013-03-11 18:52:00,
2013-03-11 15:02:00,32.0,27.0,29.80,West,270,16.0,25.0,83,-99.99,,,-99.99,,2013-03-11 19:02:00,
2013-03-11 15:12:00,32.0,27.0,29.80,West,270,15.0,20.0,82,-99.99,,,-99.99,,2013-03-11 19:12:00,
2013-03-11 15:22:00,32.0,27.0,29.80,WNW,292,15.0,26.0,81,-99.99,,,-99.99,,2013-03-11 19:22:00,
2013-03-11 15:32:00,32.0,27.0,29.80,NW,315,13.0,21.0,79,-99.99,,,-99.99,,2013-03-11 19:32:00,
2013-03-11 15:42:00,32.0,27.0,29.81,West,270,12.0,21.0,80,-99.99,,,-99.99,,2013-03-11 19:42:00,
2013-03-11 15:52:00,32.0,27.0,29.81,West,270,10.0,15.0,81,-99.99,,,-99.99,,2013-03-11 19:52:00,
2013-03-11 16:02:00,32.0,27.0,29.81,West,270,15.0,23.0,80,-99.99,,,-99.99,,2013-03-11 20:02:00,
2013-03-11 16:12:00,33.0,28.0,29.80,WNW,292,13.0,20.0,82,-99.99,,,-99.99,,2013-03-11 20:12:00,
2013-03-11 16:22:00,33.0,27.0,29.81,West,270,13.0,23.0,80,-99.99,,,-99.99,,2013-03-11 20:22:00,
2013-03-11 16:32:00,33.0,27.0,29.81,WNW,292,13.0,20.0,79,-99.99,,,-99.99,,2013-03-11 20:32:00,
2013-03-11 16:43:00,33.0,28.0,29.81,WNW,292,13.0,20.0,80,-99.99,,,-99.99,,2013-03-11 20:43:00,
2013-03-11 16:52:00,33.0,28.0,29.82,West,270,11.0,17.0,80,-99.99,,,-99.99,,2013-03-11 20:52:00,
2013-03-11 17:02:00,35.0,28.0,29.82,WNW,292,10.0,16.0,78,-99.99,,,-99.99,,2013-03-11 21:02:00,
2013-03-11 17:12:00,35.0,30.0,29.82,WNW,292,11.0,17.0,82,-99.99,,,-99.99,,2013-03-11 21:12:00,
2013-03-11 17:22:00,34.0,28.0,29.83,WNW,292,9.0,17.0,78,-99.99,,,-99.99,,2013-03-11 21:22:00,
2013-03-11 17:32:00,34.0,28.0,29.84,West,270,12.0,18.0,78,-99.99,,,-99.99,,2013-03-11 21:32:00,
2013-03-11 17:43:00,34.0,28.0,29.83,WNW,292,12.0,16.0,77,-99.99,,,-99.99,,2013-03-11 21:43:00,
2013-03-11 17:52:00,34.0,28.0,29.84,WNW,292,14.0,22.0,80,-99.99,,,-99.99,,2013-03-11 21:52:00,
2013-03-11 18:02:00,34.0,28.0,29.84,WNW,292,11.0,16.0,78,-99.99,,,-99.99,,2013-03-11 22:02:00,
2013-03-11 18:12:00,34.0,28.0,29.84,WNW,292,11.0,18.0,77,-99.99,,,-99.99,,2013-03-11 22:12:00,
2013-03-11 18:22:00,34.0,28.0,29.84,West,270,10.0,17.0,78,-99.99,,,-99.99,,2013-03-11 22:22:00,
2013-03-11 18:32:00,34.0,27.0,29.84,WNW,292,9.0,15.0,77,-99.99,,,-99.99,,2013-03-11 22:32:00,
2013-03-11 18:43:00,34.0,27.0,29.84,West,270,9.0,15.0,77,-99.99,,,-99.99,,2013-03-11 22:43:00,
2013-03-11 18:52:00,34.0,27.0,29.84,West,270,9.0,15.0,77,-99.99,,,-99.99,,2013-03-11 22:52:00,
2013-03-11 19:02:00,34.0,27.0,29.84,West,270,9.0,15.0,77,-99.99,,,-99.99,,2013-03-11 23:02:00,
2013-03-11 19:12:00,34.0,27.0,29.84,West,270,9.0,15.0,77,-99.99,,,-99.99,,2013-03-11 23:12:00,
2013-03-11 19:22:00,34.0,27.0,29.84,West,270,9.0,15.0,77,-99.99,,,-99.99,,2013-03-11 23:22:00,